DW8343 Weather Reports


Display with metric or nautical units.
time (UTC)temp
F
wind
direction
speed
MPH
gust
MPH
rain 1hr
in
rain 24hr
in
rain mn
in
humidity
%
barometer
mb
20260902064833 85 155 1.0 1.0 0.00 0.00 0.00 54 1016.9
20260902064330 85 324 0.0 1.0 0.00 0.00 0.00 53 1016.8
20260902063824 85 244 1.0 2.0 0.00 0.00 0.00 53 1016.9
20260902063318 85 237 3.0 3.0 0.00 0.00 0.00 53 1016.8
20260902062813 85 172 0.0 1.0 0.00 0.00 0.00 53 1016.8
20260902062308 86 54 0.0 2.0 0.00 0.00 0.00 53 1016.8
20260902061808 86 329 1.0 2.0 0.00 0.00 0.00 53 1016.9
20260902061303 85 119 1.0 2.0 0.00 0.00 0.00 53 1017.0
20260902060800 85 125 0.0 2.0 0.00 0.00 0.00 53 1016.8
20260902060255 86 134 0.0 1.0 0.00 0.00 0.00 53 1017.0
20260902055750 86 134 1.0 2.0 0.00 0.00 0.00 52 1016.9
20260902055247 86 99 0.0 1.0 0.00 0.00 0.00 52 1016.7
20260902054747 86 99 1.0 1.0 0.00 0.00 0.00 52 1016.7
20260902054243 86 99 1.0 1.0 0.00 0.00 0.00 51 1016.9
20260902053737 87 98 0.0 2.0 0.00 0.00 0.00 51 1016.7
20260902053236 87 98 0.0 1.0 0.00 0.00 0.00 50 1016.7
20260902052731 87 98 0.0 4.0 0.00 0.00 0.00 50 1016.5
20260902052227 87 309 1.0 2.0 0.00 0.00 0.00 49 1016.4
20260902051726 87 172 1.0 1.0 0.00 0.00 0.00 50 1016.5
20260902051220 87 136 0.0 2.0 0.00 0.00 0.00 49 1016.4
20260902050715 87 159 0.0 1.0 0.00 0.00 0.00 49 1016.4
20260902050210 87 283 2.0 3.0 0.00 0.00 0.00 49 1016.5
20260902045705 88 117 1.0 1.0 0.00 0.00 0.00 48 1016.5
20260902045201 88 257 2.0 3.0 0.00 0.00 0.00 48 1016.5
20260902044656 88 18 1.0 3.0 0.00 0.00 0.00 48 1016.5
20260902044152 87 274 2.0 3.0 0.00 0.00 0.00 48 1016.5
20260902043646 88 2 0.0 1.0 0.00 0.00 0.00 48 1016.8
20260902043142 88 137 2.0 4.0 0.00 0.00 0.00 48 1016.9
20260902042636 88 223 2.0 3.0 0.00 0.00 0.00 48 1016.8
20260902042131 88 172 0.0 3.0 0.00 0.00 0.00 48 1016.6
20260902041631 88 291 2.0 3.0 0.00 0.00 0.00 48 1016.7
20260902041126 88 264 0.0 1.0 0.00 0.00 0.00 49 1016.7
20260902040625 88 181 1.0 2.0 0.00 0.00 0.00 48 1016.7
20260902040120 88 155 2.0 2.0 0.00 0.00 0.00 48 1016.7
20260902035618 88 314 0.0 2.0 0.00 0.00 0.00 48 1016.8
20260902035114 88 151 1.0 2.0 0.00 0.00 0.00 48 1016.7
20260902034613 88 156 0.0 1.0 0.00 0.00 0.00 48 1016.6
20260902034107 88 207 1.0 2.0 0.00 0.00 0.00 48 1016.7
20260902033606 89 51 1.0 1.0 0.00 0.00 0.00 47 1016.6
20260902033101 89 249 0.0 2.0 0.00 0.00 0.00 47 1016.5
20260902032600 89 350 0.0 3.0 0.00 0.00 0.00 47 1016.4
20260902032055 89 185 1.0 2.0 0.00 0.00 0.00 46 1016.5
20260902031549 89 21 0.0 1.0 0.00 0.00 0.00 47 1016.2
20260902031046 89 132 0.0 2.0 0.00 0.00 0.00 46 1016.3
20260902030545 89 116 0.0 2.0 0.00 0.00 0.00 46 1015.9
20260902030040 90 108 0.0 1.0 0.00 0.00 0.00 46 1016.3
20260902025540 90 107 1.0 2.0 0.00 0.00 0.00 45 1016.1
20260902025035 90 107 0.0 1.0 0.00 0.00 0.00 45 1015.8
20260902024531 90 279 0.0 3.0 0.00 0.00 0.00 45 1015.8
20260902024030 90 186 1.0 1.0 0.00 0.00 0.00 44 1015.7
20260902023526 91 187 0.0 2.0 0.00 0.00 0.00 44 1015.5
20260902023021 91 331 0.0 1.0 0.00 0.00 0.00 44 1015.6
20260902022515 91 296 0.0 2.0 0.00 0.00 0.00 43 1015.5
20260902022011 91 339 0.0 0.0 0.00 0.00 0.00 43 1015.4
20260902021501 92 177 0.0 1.0 0.00 0.00 0.00 42 1015.2
20260902020956 92 200 0.0 2.0 0.00 0.00 0.00 42 1015.3
20260902020452 92 246 1.0 2.0 0.00 0.00 0.00 42 1015.3
20260902015948 92 24 0.0 1.0 0.00 0.00 0.00 41 1015.3
20260902015443 92 63 1.0 2.0 0.00 0.00 0.00 41 1015.0
20260902014938 92 44 0.0 0.0 0.00 0.00 0.00 41 1015.2
20260902014435 92 101 1.0 2.0 0.00 0.00 0.00 40 1015.2
20260902013934 93 9 0.0 1.0 0.00 0.00 0.00 40 1015.2
20260902013430 93 0 0.0 1.0 0.00 0.00 0.00 39 1015.0
20260902012925 93 19 0.0 2.0 0.00 0.00 0.00 39 1014.9
20260902012420 94 37 0.0 1.0 0.00 0.00 0.00 38 1014.9
20260902011916 94 64 1.0 1.0 0.00 0.00 0.00 38 1014.8
20260902011410 94 354 0.0 2.0 0.00 0.00 0.00 37 1014.8
20260902010910 94 298 0.0 4.0 0.00 0.00 0.00 36 1015.0
20260902010405 95 98 0.0 3.0 0.00 0.00 0.00 36 1014.9
20260902005905 95 287 0.0 4.0 0.00 0.00 0.00 35 1014.8
20260902005404 95 63 0.0 2.0 0.00 0.00 0.00 35 1014.8
20260902004900 96 47 2.0 3.0 0.00 0.00 0.00 35 1014.8
20260902004359 96 335 0.0 1.0 0.00 0.00 0.00 34 1014.6
20260902003849 96 72 2.0 4.0 0.00 0.00 0.00 34 1014.7
20260902003344 96 335 0.0 0.0 0.00 0.00 0.00 35 1014.8
20260902002840 96 284 1.0 3.0 0.00 0.00 0.00 34 1014.9
20260902002339 96 246 1.0 3.0 0.00 0.00 0.00 34 1014.8
20260902001835 97 64 0.0 1.0 0.00 0.00 0.00 34 1015.0
20260902001329 97 62 1.0 2.0 0.00 0.00 0.00 34 1015.1
20260902000824 97 322 0.0 7.0 0.00 0.00 0.00 33 1015.1
20260902000322 98 337 1.0 4.0 0.00 0.00 0.00 33 1015.0
20260901235814 98 292 2.0 6.0 0.00 0.00 0.00 33 1014.8
20260901235308 98 304 3.0 7.0 0.00 0.00 0.00 32 1014.7
20260901234808 98 268 1.0 3.0 0.00 0.00 0.00 32 1015.1
20260901234303 98 326 3.0 4.0 0.00 0.00 0.00 32 1015.2
20260901233758 98 255 2.0 4.0 0.00 0.00 0.00 33 1014.9
20260901233253 98 276 1.0 6.0 0.00 0.00 0.00 32 1015.1
20260901232748 99 58 1.0 2.0 0.00 0.00 0.00 32 1015.3
20260901232243 99 205 2.0 3.0 0.00 0.00 0.00 31 1015.3
20260901231739 99 4 0.0 2.0 0.00 0.00 0.00 31 1015.3
20260901231236 99 290 0.0 4.0 0.00 0.00 0.00 31 1015.4
20260901230732 99 65 2.0 4.0 0.00 0.00 0.00 31 1015.3
20260901230231 99 124 0.0 3.0 0.00 0.00 0.00 31 1015.1
20260901225727 99 153 2.0 4.0 0.00 0.00 0.00 31 1015.3
20260901225221 99 318 2.0 3.0 0.00 0.00 0.00 32 1015.3
20260901224717 100 7 4.0 8.0 0.00 0.00 0.00 32 1015.4
20260901224213 99 267 3.0 4.0 0.00 0.00 0.00 31 1015.1
20260901223709 100 294 2.0 3.0 0.00 0.00 0.00 31 1015.1
20260901223203 100 273 0.0 2.0 0.00 0.00 0.00 30 1015.1
20260901222700 101 68 1.0 2.0 0.00 0.00 0.00 30 1015.2
20260901222155 102 312 0.0 3.0 0.00 0.00 0.00 30 1015.1
20260901221651 102 130 2.0 4.0 0.00 0.00 0.00 30 1015.0
20260901221147 101 270 2.0 7.0 0.00 0.00 0.00 30 1015.1
20260901220646 102 99 1.0 3.0 0.00 0.00 0.00 30 1015.1
20260901220145 101 264 1.0 4.0 0.00 0.00 0.00 29 1015.2
20260901215644 102 294 1.0 6.0 0.00 0.00 0.00 29 1015.1
20260901215139 101 265 2.0 3.0 0.00 0.00 0.00 30 1015.3
20260901214637 99 242 1.0 3.0 0.00 0.00 0.00 31 1015.3
20260901214136 99 42 1.0 1.0 0.00 0.00 0.00 31 1015.4
20260901213630 100 307 1.0 6.0 0.00 0.00 0.00 30 1015.3
20260901213125 103 218 1.0 3.0 0.00 0.00 0.00 29 1015.6
20260901212625 101 238 5.0 7.0 0.00 0.00 0.00 30 1015.3
20260901212121 101 19 1.0 4.0 0.00 0.00 0.00 30 1015.6
20260901211616 103 299 1.0 1.0 0.00 0.00 0.00 28 1015.8
20260901211113 102 136 2.0 8.0 0.00 0.00 0.00 29 1015.6
20260901210608 104 175 1.0 2.0 0.00 0.00 0.00 28 1015.8
20260901210104 104 200 4.0 7.0 0.00 0.00 0.00 27 1015.8
20260901205559 103 113 2.0 3.0 0.00 0.00 0.00 28 1015.8
20260901205053 104 180 3.0 7.0 0.00 0.00 0.00 28 1015.8
20260901204549 103 182 3.0 6.0 0.00 0.00 0.00 29 1015.9
20260901204044 103 206 0.0 2.0 0.00 0.00 0.00 28 1016.2
20260901203538 102 37 2.0 8.0 0.00 0.00 0.00 29 1016.4
20260901203033 101 269 3.0 7.0 0.00 0.00 0.00 28 1016.3
20260901202528 100 153 2.0 2.0 0.00 0.00 0.00 29 1016.3
20260901202024 101 270 4.0 7.0 0.00 0.00 0.00 28 1016.5
20260901201519 99 261 2.0 6.0 0.00 0.00 0.00 29 1016.7
20260901201014 100 301 0.0 2.0 0.00 0.00 0.00 28 1016.7
20260901200508 102 240 2.0 9.0 0.00 0.00 0.00 28 1016.7
20260901200003 102 320 2.0 4.0 0.00 0.00 0.00 28 1016.9
20260901195501 102 320 2.0 4.0 0.00 0.00 0.00 28 1016.9
20260901195000 101 137 2.0 10.0 0.00 0.00 0.00 28 1016.9
20260901194455 102 64 1.0 7.0 0.00 0.00 0.00 28 1016.9
20260901193951 102 223 2.0 6.0 0.00 0.00 0.00 27 1016.8
20260901193450 102 63 1.0 3.0 0.00 0.00 0.00 29 1016.9
20260901192950 101 50 1.0 4.0 0.00 0.00 0.00 29 1016.9
20260901192446 100 151 1.0 4.0 0.00 0.00 0.00 29 1017.2
20260901191942 103 301 2.0 4.0 0.00 0.00 0.00 27 1017.3
20260901191437 102 18 1.0 6.0 0.00 0.00 0.00 29 1017.2
20260901190933 102 178 1.0 6.0 0.00 0.00 0.00 28 1017.2
20260901190433 100 28 2.0 3.0 0.00 0.00 0.00 31 1017.3
20260901185931 98 170 2.0 3.0 0.00 0.00 0.00 30 1017.4
20260901185426 100 84 4.0 4.0 0.00 0.00 0.00 30 1017.4
20260901184926 100 44 2.0 10.0 0.00 0.00 0.00 28 1017.6
20260901184421 101 17 3.0 6.0 0.00 0.00 0.00 29 1017.6
20260901183916 100 221 2.0 4.0 0.00 0.00 0.00 30 1017.9
20260901183416 100 265 2.0 7.0 0.00 0.00 0.00 30 1017.8
20260901182912 99 295 2.0 2.0 0.00 0.00 0.00 30 1017.7
20260901182407 98 256 2.0 10.0 0.00 0.00 0.00 33 1017.9
20260901181902 99 277 2.0 3.0 0.00 0.00 0.00 31 1018.0
20260901181356 99 210 4.0 6.0 0.00 0.00 0.00 30 1017.8
20260901180855 100 89 2.0 7.0 0.00 0.00 0.00 31 1018.1
20260901180354 100 219 5.0 8.0 0.00 0.00 0.00 32 1018.2
20260901175853 99 210 1.0 6.0 0.00 0.00 0.00 33 1018.0
20260901175348 98 268 0.0 7.0 0.00 0.00 0.00 34 1018.2
20260901174843 100 69 1.0 3.0 0.00 0.00 0.00 33 1018.2
20260901174333 101 318 1.0 2.0 0.00 0.00 0.00 32 1018.1
20260901173829 99 355 1.0 7.0 0.00 0.00 0.00 34 1018.3
20260901173324 99 271 0.0 6.0 0.00 0.00 0.00 35 1018.6
20260901172821 98 295 1.0 7.0 0.00 0.00 0.00 34 1018.4
20260901172319 98 76 3.0 6.0 0.00 0.00 0.00 34 1018.6
20260901171817 98 199 2.0 6.0 0.00 0.00 0.00 34 1018.6
20260901171317 98 315 2.0 7.0 0.00 0.00 0.00 34 1018.5
20260901170816 98 306 1.0 6.0 0.00 0.00 0.00 36 1018.7
20260901170316 98 247 1.0 4.0 0.00 0.00 0.00 36 1018.7
20260901165815 98 246 2.0 6.0 0.00 0.00 0.00 35 1018.8
20260901165310 97 316 4.0 8.0 0.00 0.00 0.00 36 1018.8
20260901164807 98 191 3.0 4.0 0.00 0.00 0.00 36 1018.8
20260901164301 97 269 2.0 4.0 0.00 0.00 0.00 38 1018.8
20260901163756 97 126 5.0 7.0 0.00 0.00 0.00 37 1018.9
20260901163256 96 188 2.0 4.0 0.00 0.00 0.00 38 1018.8
20260901162751 96 230 6.0 8.0 0.00 0.00 0.00 38 1018.7
20260901162251 96 278 1.0 7.0 0.00 0.00 0.00 38 1019.0
20260901161749 96 67 1.0 4.0 0.00 0.00 0.00 38 1019.2
20260901161244 95 252 1.0 8.0 0.00 0.00 0.00 38 1018.9
20260901160740 95 268 2.0 10.0 0.00 0.00 0.00 39 1019.0
20260901160236 95 259 2.0 7.0 0.00 0.00 0.00 39 1018.9
20260901155735 95 94 1.0 3.0 0.00 0.00 0.00 40 1019.2
20260901155230 95 243 3.0 4.0 0.00 0.00 0.00 39 1019.0
20260901154725 95 295 3.0 6.0 0.00 0.00 0.00 40 1018.9
20260901154221 94 189 2.0 2.0 0.00 0.00 0.00 40 1018.9
20260901153716 93 231 2.0 4.0 0.00 0.00 0.00 42 1019.0
20260901153215 92 105 1.0 6.0 0.00 0.00 0.00 42 1018.9
20260901152709 93 261 3.0 4.0 0.00 0.00 0.00 42 1019.0
20260901152208 92 308 1.0 6.0 0.00 0.00 0.00 42 1019.0
20260901151704 92 230 1.0 3.0 0.00 0.00 0.00 43 1018.7
20260901151203 92 285 2.0 4.0 0.00 0.00 0.00 43 1019.0
20260901150658 92 223 2.0 4.0 0.00 0.00 0.00 43 1019.2
20260901150156 91 215 0.0 3.0 0.00 0.00 0.00 44 1019.0
20260901145653 90 93 1.0 4.0 0.00 0.00 0.00 45 1019.0
20260901145148 91 56 1.0 2.0 0.00 0.00 0.00 45 1019.0
20260901144644 89 208 2.0 6.0 0.00 0.00 0.00 46 1019.3
20260901144138 90 133 1.0 3.0 0.00 0.00 0.00 46 1019.2
20260901143634 89 200 1.0 6.0 0.00 0.00 0.00 47 1019.2
20260901143130 89 270 1.0 7.0 0.00 0.00 0.00 48 1019.2
20260901142626 89 155 2.0 9.0 0.00 0.00 0.00 48 1019.2
20260901142125 88 256 2.0 3.0 0.00 0.00 0.00 49 1019.4
20260901141620 88 196 1.0 6.0 0.00 0.00 0.00 49 1019.2
20260901141120 87 225 2.0 3.0 0.00 0.00 0.00 50 1019.3
20260901140619 87 138 2.0 3.0 0.00 0.00 0.00 50 1019.2
20260901140118 86 69 1.0 2.0 0.00 0.00 0.00 51 1019.5
20260901135618 86 4 0.0 6.0 0.00 0.00 0.00 51 1019.3
20260901135113 85 38 2.0 4.0 0.00 0.00 0.00 52 1019.3
20260901134609 85 165 1.0 3.0 0.00 0.00 0.00 52 1019.2
20260901134104 84 276 1.0 6.0 0.00 0.00 0.00 53 1019.0
20260901133602 84 264 1.0 3.0 0.00 0.00 0.00 54 1019.0
20260901133101 84 237 1.0 3.0 0.00 0.00 0.00 54 1019.2
20260901132556 83 149 1.0 2.0 0.00 0.00 0.00 54 1018.9
20260901132050 83 295 0.0 2.0 0.00 0.00 0.00 55 1018.7
20260901131551 82 358 0.0 1.0 0.00 0.00 0.00 56 1018.8
20260901131046 82 355 1.0 1.0 0.00 0.00 0.00 57 1018.9
20260901130545 81 168 2.0 2.0 0.00 0.00 0.00 57 1018.8
20260901130044 81 309 1.0 3.0 0.00 0.00 0.00 57 1018.7
20260901125543 81 254 0.0 3.0 0.00 0.00 0.00 58 1018.6
20260901125038 81 68 2.0 3.0 0.00 0.00 0.00 58 1018.8
20260901124533 81 42 1.0 3.0 0.00 0.00 0.00 58 1018.7
20260901124032 81 42 1.0 3.0 0.00 0.00 0.00 58 1018.7
20260901123527 81 248 1.0 4.0 0.00 0.00 0.00 58 1018.5
20260901123028 81 245 1.0 2.0 0.00 0.00 0.00 58 1018.5
20260901122526 81 29 3.0 6.0 0.00 0.00 0.00 57 1018.4
20260901122026 81 281 1.0 2.0 0.00 0.00 0.00 58 1018.3
20260901121520 81 110 0.0 1.0 0.00 0.00 0.00 58 1018.3
20260901121016 81 331 1.0 6.0 0.00 0.00 0.00 57 1018.3
20260901120515 81 136 1.0 3.0 0.00 0.00 0.00 57 1018.4
20260901120012 81 159 3.0 4.0 0.00 0.00 0.00 57 1018.1
20260901115506 81 187 3.0 4.0 0.00 0.00 0.00 57 1018.1
20260901115004 81 321 4.0 4.0 0.00 0.00 0.00 56 1018.3
20260901114459 81 268 4.0 6.0 0.00 0.00 0.00 57 1018.1
20260901113956 82 283 2.0 3.0 0.00 0.00 0.00 56 1017.9
20260901113456 81 12 1.0 4.0 0.00 0.00 0.00 56 1018.0
20260901112952 82 240 0.0 2.0 0.00 0.00 0.00 56 1018.1
20260901112447 82 20 1.0 6.0 0.00 0.00 0.00 56 1018.0
20260901111942 82 265 0.0 4.0 0.00 0.00 0.00 56 1017.9
20260901111440 82 254 2.0 3.0 0.00 0.00 0.00 55 1018.1
20260901110938 82 162 1.0 4.0 0.00 0.00 0.00 55 1018.1
20260901110434 81 156 2.0 4.0 0.00 0.00 0.00 55 1017.8
20260901105930 81 317 2.0 6.0 0.00 0.00 0.00 55 1017.9
20260901105426 81 266 2.0 2.0 0.00 0.00 0.00 55 1017.8
20260901104921 81 291 1.0 2.0 0.00 0.00 0.00 55 1017.9
20260901104416 81 261 2.0 4.0 0.00 0.00 0.00 55 1018.0
20260901103912 80 220 0.0 2.0 0.00 0.00 0.00 55 1018.1
20260901103412 80 283 1.0 3.0 0.00 0.00 0.00 55 1017.8
20260901102907 81 351 0.0 2.0 0.00 0.00 0.00 55 1017.9
20260901102401 81 106 0.0 2.0 0.00 0.00 0.00 55 1017.9
20260901101856 81 256 1.0 2.0 0.00 0.00 0.00 55 1017.9
20260901101351 81 227 0.0 2.0 0.00 0.00 0.00 54 1017.6
20260901100850 81 236 1.0 2.0 0.00 0.00 0.00 54 1017.9
20260901100345 81 167 1.0 2.0 0.00 0.00 0.00 53 1017.7
20260901095839 81 291 1.0 3.0 0.00 0.00 0.00 53 1017.8
20260901095336 81 269 1.0 2.0 0.00 0.00 0.00 52 1017.8
20260901094830 81 247 1.0 3.0 0.00 0.00 0.00 52 1017.8
20260901094325 82 134 1.0 2.0 0.00 0.00 0.00 52 1017.8
20260901093820 81 284 0.0 3.0 0.00 0.00 0.00 52 1017.7
20260901093319 81 285 2.0 2.0 0.00 0.00 0.00 52 1017.6
20260901092815 80 289 0.0 3.0 0.00 0.00 0.00 53 1017.6
20260901092306 80 74 1.0 2.0 0.00 0.00 0.00 53 1017.6
20260901091800 80 104 1.0 1.0 0.00 0.00 0.00 54 1017.5
20260901091255 79 102 2.0 2.0 0.00 0.00 0.00 54 1017.8
20260901090750 79 102 0.0 1.0 0.00 0.00 0.00 55 1017.7
20260901090245 79 96 0.0 1.0 0.00 0.00 0.00 55 1017.5
20260901085741 79 228 0.0 1.0 0.00 0.00 0.00 55 1017.7
20260901085236 79 228 0.0 1.0 0.00 0.00 0.00 55 1017.6
20260901084732 79 228 0.0 1.0 0.00 0.00 0.00 55 1017.4
20260901084228 78 229 0.0 0.0 0.00 0.00 0.00 55 1017.5
20260901083723 79 229 0.0 1.0 0.00 0.00 0.00 55 1017.4
20260901083222 78 229 0.0 1.0 0.00 0.00 0.00 55 1017.4
20260901082721 78 229 0.0 1.0 0.00 0.00 0.00 55 1017.3
20260901082217 78 229 0.0 1.0 0.00 0.00 0.00 56 1017.4
20260901081712 78 229 0.0 0.0 0.00 0.00 0.00 56 1017.3
20260901081212 78 229 0.0 0.0 0.00 0.00 0.00 56 1017.4
20260901080707 78 229 0.0 0.0 0.00 0.00 0.00 57 1017.4
20260901080206 78 229 0.0 0.0 0.00 0.00 0.00 57 1017.3
20260901075701 78 229 0.0 0.0 0.00 0.00 0.00 57 1017.4
20260901075200 78 229 0.0 0.0 0.00 0.00 0.00 57 1017.4
20260901074659 78 229 0.0 0.0 0.00 0.00 0.00 56 1017.5
20260901074154 78 229 0.0 0.0 0.00 0.00 0.00 57 1017.6
20260901073651 78 229 0.0 0.0 0.00 0.00 0.00 56 1017.2
20260901073146 78 229 0.0 0.0 0.00 0.00 0.00 56 1017.3
20260901072641 79 229 0.0 0.0 0.00 0.00 0.00 55 1017.3
20260901072136 79 229 0.0 0.0 0.00 0.00 0.00 55 1017.4
20260901071631 79 229 0.0 0.0 0.00 0.00 0.00 55 1017.3
20260901071130 79 229 0.0 0.0 0.00 0.00 0.00 55 1017.4
20260901070624 80 229 0.0 0.0 0.00 0.00 0.00 54 1017.3
20260901070120 80 229 0.0 0.0 0.00 0.00 0.00 53 1017.4
20260901065609 81 229 0.0 0.0 0.00 0.00 0.00 52 1017.4